Weather History for Ambler, AK

Change the Weather History Date:

Sunday, May 19, 2013

  Actual Average Record
Temperature  
Mean Temperature 30 °F -  
Max Temperature 35 °F 46 °F 72 °F (1990)
Min Temperature 24 °F 31 °F 16 °F (1986)
Degree Days  
Heating Degree Days 36    
Moisture  
Dew Point 22 °F    
Average Humidity 76    
Maximum Humidity 100    
Minimum Humidity 50    
Precipitation  
Precipitation 0.02 in - - ()
Sea Level Pressure  
Sea Level Pressure 30.32 in    
Wind  
Wind Speed 6 mph (SSE)    
Max Wind Speed 14 mph    
Max Gust Speed 23 mph    
Visibility 8 miles    
Events      
Averages and records for this station are not official NWS values.
T = Trace of Precipitation, MM = Missing Value Source: NWS Daily Summary

Daily Weather History Graph

Daily Weather History Graph

Search for Another Location

Airport:

Trip Planner

Search our weather history database for the weather conditions in past years. The results will help you decide how hot, cold, wet, or windy it might be!

Date:

Astronomy

May. 19, 2013 Rise Set
Actual Time 4:13 AM AKDT 12:46 AM AKDT
Civil Twilight Sun does not rise Sun does not rise
Nautical Twilight Sun does not rise Sun does not rise
Astronomical Twilight Sun does not rise Sun does not rise
Moon 4:02 PM AKDT 3:53 AM AKDT
Length of Visible Light 24h 00m
Length of Day
20h 32m
Waxing Gibbous, 66% of the Moon is Illuminated
May 19
Waxing Gibbous
May 24
Full
May 31
Last Quarter
Jun 8
New
Jun 16
First Quarter

Hourly Weather History & Observations

Time (AKDT) Temp. Windchill Dew Point Humidity Pressure Visibility Wind Dir Wind Speed Gust Speed Precip Events Conditions
12:16 AM 24.8 °F - 8.6 °F 50% 30.17 in 10.0 mi Calm Calm - N/A   Overcast
12:36 AM 24.8 °F - 8.6 °F 50% 30.17 in 10.0 mi Calm Calm - N/A   Overcast
12:56 AM 24.8 °F 20.5 °F 8.6 °F 50% 30.18 in 10.0 mi East 3.5 mph - N/A   Overcast
1:16 AM 24.8 °F 19.1 °F 8.6 °F 50% 30.18 in 10.0 mi NE 4.6 mph - N/A   Overcast
1:36 AM 24.8 °F 17.9 °F 8.6 °F 50% 30.18 in 10.0 mi East 5.8 mph - N/A   Overcast
1:56 AM 24.8 °F 19.1 °F 8.6 °F 50% 30.19 in 10.0 mi East 4.6 mph - N/A   Overcast
2:16 AM 24.8 °F 19.1 °F 8.6 °F 50% 30.19 in 10.0 mi ESE 4.6 mph - N/A   Overcast
2:36 AM 24.8 °F 19.1 °F 8.6 °F 50% 30.20 in 10.0 mi East 4.6 mph - N/A   Overcast
2:56 AM 24.8 °F 19.1 °F 8.6 °F 50% 30.20 in 10.0 mi East 4.6 mph - N/A   Overcast
3:16 AM 24.8 °F 20.5 °F 8.6 °F 50% 30.21 in 10.0 mi East 3.5 mph - N/A   Overcast
3:36 AM 24.8 °F - 10.4 °F 54% 30.22 in 10.0 mi Calm Calm - N/A   Overcast
3:56 AM 24.8 °F 19.1 °F 10.4 °F 54% 30.22 in 10.0 mi SE 4.6 mph - N/A   Overcast
4:16 AM 24.8 °F 20.5 °F 10.4 °F 54% 30.23 in 10.0 mi SE 3.5 mph - N/A   Overcast
4:36 AM 24.8 °F - 10.4 °F 54% 30.23 in 10.0 mi Calm Calm - N/A   Overcast
4:56 AM 26.6 °F 22.6 °F 10.4 °F 51% 30.24 in 10.0 mi East 3.5 mph - N/A   Overcast
5:16 AM 26.6 °F 22.6 °F 10.4 °F 51% 30.24 in 10.0 mi ENE 3.5 mph - N/A   Overcast
5:36 AM 26.6 °F 22.6 °F 10.4 °F 51% 30.25 in 10.0 mi East 3.5 mph - N/A   Overcast
5:56 AM 26.6 °F 22.6 °F 12.2 °F 55% 30.25 in 10.0 mi ESE 3.5 mph - N/A   Overcast
6:16 AM 26.6 °F 20.0 °F 14.0 °F 59% 30.25 in 10.0 mi ESE 5.8 mph - N/A   Overcast
6:36 AM 26.6 °F 21.2 °F 14.0 °F 59% 30.26 in 10.0 mi SE 4.6 mph - N/A   Overcast
6:56 AM 26.6 °F 18.2 °F 14.0 °F 59% 30.26 in 10.0 mi ESE 8.1 mph - N/A   Overcast
7:16 AM 26.6 °F 20.0 °F 15.8 °F 64% 30.27 in 10.0 mi ESE 5.8 mph - N/A   Overcast
7:36 AM 26.6 °F 18.2 °F 15.8 °F 64% 30.27 in 10.0 mi ESE 8.1 mph - N/A   Overcast
7:56 AM 26.6 °F 16.8 °F 15.8 °F 64% 30.27 in 10.0 mi SE 10.4 mph 16.1 mph N/A   Overcast
8:16 AM 26.6 °F 21.2 °F 15.8 °F 64% 30.28 in 10.0 mi SE 4.6 mph - N/A   Overcast
8:36 AM 26.6 °F 18.2 °F 17.6 °F 69% 30.28 in 5.0 mi SE 8.1 mph - N/A   Overcast
8:56 AM 26.6 °F 17.5 °F 17.6 °F 69% 30.29 in 10.0 mi SE 9.2 mph 16.1 mph N/A   Overcast
9:16 AM 26.6 °F 15.2 °F 17.6 °F 69% 30.29 in 9.0 mi SE 13.8 mph 21.9 mph N/A   Overcast
9:36 AM 26.6 °F 16.8 °F 17.6 °F 69% 30.29 in 7.0 mi SE 10.4 mph 18.4 mph N/A   Overcast
9:56 AM 26.6 °F 16.8 °F 19.4 °F 74% 30.30 in 2.0 mi SE 10.4 mph 19.6 mph N/A   Overcast
10:16 AM 24.8 °F 16.1 °F 21.2 °F 86% 30.30 in 1.0 mi SE 8.1 mph 17.3 mph N/A   Overcast
10:36 AM 26.6 °F 16.2 °F 23.0 °F 86% 30.30 in 0.8 mi SE 11.5 mph 17.3 mph N/A   Overcast
10:56 AM 26.6 °F 16.2 °F 23.0 °F 86% 30.30 in 2.5 mi SE 11.5 mph 17.3 mph N/A   Overcast
11:16 AM 26.6 °F 15.2 °F 24.8 °F 93% 30.30 in 2.5 mi SE 13.8 mph 21.9 mph N/A   Overcast
11:36 AM 28.4 °F 19.1 °F 24.8 °F 86% 30.30 in 3.0 mi SE 10.4 mph 23.0 mph N/A   Overcast
11:56 AM 28.4 °F 18.0 °F 24.8 °F 86% 30.31 in 2.5 mi SE 12.7 mph 20.7 mph N/A   Overcast
12:16 PM 28.4 °F 19.7 °F 24.8 °F 86% 30.31 in 1.2 mi SE 9.2 mph 21.9 mph N/A   Overcast
12:36 PM 28.4 °F 19.7 °F 26.6 °F 93% 30.31 in 1.5 mi SE 9.2 mph 19.6 mph N/A   Overcast
12:56 PM 30.2 °F 20.8 °F 26.6 °F 86% 30.32 in 1.8 mi SE 11.5 mph 18.4 mph N/A   Overcast
1:16 PM 30.2 °F 20.2 °F 26.6 °F 86% 30.32 in 2.5 mi SE 12.7 mph 21.9 mph N/A   Overcast
1:36 PM 30.2 °F 20.8 °F 28.4 °F 93% 30.32 in 3.0 mi SE 11.5 mph 19.6 mph N/A   Overcast
1:56 PM 30.2 °F 22.6 °F 28.4 °F 93% 30.32 in 1.5 mi SE 8.1 mph 18.4 mph N/A   Overcast
2:16 PM 30.2 °F 21.9 °F 28.4 °F 93% 30.33 in 1.0 mi SSE 9.2 mph 16.1 mph N/A   Overcast
2:36 PM 30.2 °F 24.3 °F 28.4 °F 93% 30.34 in 1.2 mi SSE 5.8 mph - N/A   Overcast
2:56 PM 32.0 °F 24.2 °F 30.2 °F 93% 30.34 in 2.0 mi SSE 9.2 mph - N/A   Overcast
3:16 PM 32.0 °F 23.0 °F 30.2 °F 93% 30.34 in 4.0 mi South 11.5 mph 16.1 mph 0.01 in   Overcast
3:36 PM 33.8 °F 27.0 °F 30.2 °F 87% 30.34 in 3.0 mi South 8.1 mph - 0.01 in   Overcast
3:56 PM 33.8 °F 25.3 °F 32.0 °F 93% 30.35 in 5.0 mi South 11.5 mph - 0.01 in   Overcast
4:16 PM 33.8 °F 25.3 °F 32.0 °F 93% 30.35 in 4.0 mi South 11.5 mph 16.1 mph 0.01 in   Overcast
4:36 PM 33.8 °F 25.8 °F 32.0 °F 93% 30.36 in 7.0 mi SSW 10.4 mph 18.4 mph 0.01 in   Overcast
4:56 PM 33.8 °F 25.8 °F 32.0 °F 93% 30.37 in 5.0 mi South 10.4 mph 16.1 mph 0.01 in   Overcast
5:16 PM 33.8 °F 24.8 °F 32.0 °F 93% 30.37 in 9.0 mi SSW 12.7 mph 18.4 mph N/A   Overcast
5:36 PM 33.8 °F 26.4 °F 33.8 °F 100% 30.38 in 10.0 mi SSW 9.2 mph - N/A   Overcast
5:56 PM 33.8 °F 25.8 °F 32.0 °F 93% 30.39 in 10.0 mi SSW 10.4 mph 16.1 mph N/A   Overcast
6:16 PM 33.8 °F 25.3 °F 32.0 °F 93% 30.39 in 10.0 mi SSW 11.5 mph 18.4 mph N/A   Overcast
6:36 PM 33.8 °F 24.8 °F 32.0 °F 93% 30.40 in 9.0 mi SSW 12.7 mph 18.4 mph N/A   Overcast
6:56 PM 33.8 °F 25.8 °F 32.0 °F 93% 30.40 in 10.0 mi SSW 10.4 mph - N/A   Overcast
7:16 PM 33.8 °F 25.8 °F 32.0 °F 93% 30.40 in 10.0 mi SSW 10.4 mph 19.6 mph N/A   Overcast
7:36 PM 33.8 °F 24.8 °F 32.0 °F 93% 30.41 in 10.0 mi SSW 12.7 mph 17.3 mph N/A   Overcast
7:56 PM 33.8 °F 25.3 °F 32.0 °F 93% 30.41 in 10.0 mi SSW 11.5 mph 16.1 mph N/A   Overcast
8:16 PM 33.8 °F 27.0 °F 32.0 °F 93% 30.42 in 10.0 mi SSW 8.1 mph 18.4 mph N/A   Overcast
8:36 PM 35.6 °F 28.6 °F 32.0 °F 87% 30.42 in 10.0 mi SSW 9.2 mph 16.1 mph N/A   Overcast
8:56 PM 33.8 °F 25.8 °F 32.0 °F 93% 30.43 in 10.0 mi SW 10.4 mph 18.4 mph N/A   Mostly Cloudy
9:16 PM 33.8 °F 25.3 °F 30.2 °F 87% 30.43 in 10.0 mi SW 11.5 mph 17.3 mph N/A   Overcast
9:36 PM 33.8 °F 25.8 °F 30.2 °F 87% 30.44 in 10.0 mi SW 10.4 mph 18.4 mph N/A   Overcast
9:56 PM 33.8 °F 25.8 °F 30.2 °F 87% 30.45 in 10.0 mi SW 10.4 mph - N/A   Overcast
10:16 PM 33.8 °F 25.8 °F 28.4 °F 81% 30.45 in 10.0 mi SSW 10.4 mph 16.1 mph N/A   Overcast
10:36 PM 33.8 °F 25.3 °F 28.4 °F 81% 30.46 in 10.0 mi SSW 11.5 mph 17.3 mph N/A   Overcast
10:56 PM 33.8 °F 25.3 °F 26.6 °F 75% 30.47 in 10.0 mi SSW 11.5 mph - N/A   Overcast
11:16 PM 33.8 °F 25.3 °F 26.6 °F 75% 30.47 in 10.0 mi SSW 11.5 mph - N/A   Overcast
11:36 PM 33.8 °F 26.4 °F 26.6 °F 75% 30.48 in 10.0 mi SSW 9.2 mph - N/A   Overcast
11:56 PM 33.8 °F 27.7 °F 26.6 °F 75% 30.48 in 8.0 mi SW 6.9 mph - N/A   Overcast